Regional Weather Roundup
Issued by NWS

Home | Current Version | Previous Version | Graphics & Text | Print | Product List | Glossary Off
Versions: 1 2 3 4 5 6 7 8 9 10 11 12 13 14 15 16 17 18 19 20 21 22 23 24 25 26 27 28 29 30 31 32 33 34 35 36 37 38 39 40 41 42 43 44 45 46 47 48 49 50

882
ASUS43 KMKX 201220
RWRWI

WISCONSIN REGIONAL WEATHER ROUNDUP
NATIONAL WEATHER SERVICE MILWAUKEE/SULLIVAN WI
600 AM CST SAT JAN 20 2018

NOTE: "FAIR" INDICATES FEW OR NO CLOUDS BELOW 12,000 FEET WITH NO
SIGNIFICANT WEATHER AND/OR OBSTRUCTIONS TO VISIBILITY.

WIZ001-002-006>008-014>016-023>028-201300-
NORTHWEST WISCONSIN

CITY           SKY/WX    TMP DP  RH WIND       PRES   REMARKS
SUPERIOR ARPT  FAIR      28  27  95 SW8       29.76S WCI  20
6HR MIN TEMP:  27; 6HR MAX TEMP:  38;

ASHLAND        FAIR      26  25  96 SW6       29.76R WCI  19
6HR MIN TEMP:  26; 6HR MAX TEMP:  36;

HAYWARD        FAIR      16  10  77 CALM      29.78R HAZE
6HR MIN TEMP:  16; 6HR MAX TEMP:  24;

SIREN            N/A     24  23  98 SW3       29.80R FOG
6HR MIN TEMP:  19; 6HR MAX TEMP:  32;

CUMBERLAND       N/A     25  23  93 W7        29.79R FOG     WCI  17
RICE LAKE      FOG       15  13  94 CALM      29.81R VSB<1/4
6HR MIN TEMP:  13; 6HR MAX TEMP:  30;

CHETEK         FAIR      16  15  94 CALM      29.80R
6HR MIN TEMP:  15; 6HR MAX TEMP:  23;

LADYSMITH      FOG       13  11  91 CALM      29.80R VSB 1/4
6HR MIN TEMP:  12; 6HR MAX TEMP:  24;

EAU CLAIRE     FOG       22  21  96 SW3       29.81R VSB 1/4
6HR MIN TEMP:  21; 6HR MAX TEMP:  33;

MENOMONIE      FAIR      24  24  98 CALM      29.81R FOG
6HR MIN TEMP:  20; 6HR MAX TEMP:  31;

NEW RICHMOND   FAIR      17  15  93 CALM      29.81R FOG
6HR MIN TEMP:  15; 6HR MAX TEMP:  29;

OSCEOLA        FOG       18  18 100 CALM      29.84R VSB 1/4
6HR MIN TEMP:  16; 6HR MAX TEMP:  23;

$$

WIZ003>005-009-010-017-018-201300-
NORTH CENTRAL WISCONSIN

CITY           SKY/WX    TMP DP  RH WIND       PRES   REMARKS
MANITOWISH WTR FOG       18  18 100 CALM      29.72R VSB 1
6HR MIN TEMP:  14; 6HR MAX TEMP:  30;

ARBOR VITAE    FOG       25  23  92 CALM      29.73R VSB 3/4
6HR MIN TEMP:  25; 6HR MAX TEMP:  34;

WOODRUFF       FOG       25  23  92 CALM      29.73R VSB 3/4
6HR MIN TEMP:  25; 6HR MAX TEMP:  34;

RHINELANDER    FAIR      30  27  88 NW5       29.73R WCI  25
6HR MIN TEMP:  27; 6HR MAX TEMP:  33;

EAGLE RIVER    FOG       18  17  98 W5        29.72S VSB 1/2 WCI  11
6HR MIN TEMP:  20; 6HR MAX TEMP:  31;

LAND O LAKES   FAIR      14  12  92 CALM      29.73S
6HR MIN TEMP:  14; 6HR MAX TEMP:  32;

PHILLIPS       FOG       13  12  97 CALM      29.75R VSB 1/4
6HR MIN TEMP:  13; 6HR MAX TEMP:  28;

TOMAHAWK       FOG       22  21  95 CALM      29.75R VSB 1/2
6HR MIN TEMP:  22; 6HR MAX TEMP:  32;

MEDFORD        FAIR      25  24  97 W3        29.76R FOG
6HR MIN TEMP:  25; 6HR MAX TEMP:  32;

MERRILL        FOG       22  21  98 CALM      29.76R VSB 1/4
6HR MIN TEMP:  20; 6HR MAX TEMP:  31;

$$

WIZ029-030-035-036-043>047-201300-
CENTRAL WISCONSIN

CITY           SKY/WX    TMP DP  RH WIND       PRES   REMARKS
WAUSAU         FAIR      30  27  88 NW7       29.74R WCI  23
6HR MIN TEMP:  29; 6HR MAX TEMP:  35;

MOSINEE        CLEAR     28  27  93 W5        29.76R WCI  23
MARSHFIELD     FAIR      29  27  92 W5        29.76R WCI  24
6HR MIN TEMP:  24; 6HR MAX TEMP:  33;

STEVENS POINT  FAIR      21  21 100 CALM      29.79R FOG
6HR MIN TEMP:  20; 6HR MAX TEMP:  33;

WAUPACA        FAIR      29  25  86 CALM      29.79R
6HR MIN TEMP:  29; 6HR MAX TEMP:  38;

WAUTOMA        FAIR      22  21  96 CALM      29.80R
6HR MIN TEMP:  22; 6HR MAX TEMP:  33;

WISC RAPIDS    FAIR      24  20  84 SW3       29.80R
6HR MIN TEMP:  21; 6HR MAX TEMP:  34;

CAMP DOUGLAS   FAIR      22  21  99 CALM      29.79R FOG
6HR MIN TEMP:  19; 6HR MAX TEMP:  32;

$$

WIZ011>013-019>022-031-037>040-048>050-201300-
NORTHEAST WISCONSIN

CITY           SKY/WX    TMP DP  RH WIND       PRES   REMARKS
ANTIGO         FAIR      24  24  98 W3        29.74R
6HR MIN TEMP:  24; 6HR MAX TEMP:  32;

SHAWANO        FAIR      33  28  83 S3        29.77R
6HR MIN TEMP:  34; 6HR MAX TEMP:  38;

OCONTO         FAIR      33  28  82 W6        29.76R WCI  27
6HR MIN TEMP:  32; 6HR MAX TEMP:  37;

STURGEON BAY   FAIR      35  28  75 W7        29.76R WCI  29
6HR MIN TEMP:  35; 6HR MAX TEMP:  38;

GREEN BAY      FAIR      31  25  78 S6        29.78R WCI  25
6HR MIN TEMP:  30; 6HR MAX TEMP:  37;

MANITOWOC      FAIR      36  28  73 W8        29.78R WCI  30
6HR MIN TEMP:  35; 6HR MAX TEMP:  38;

APPLETON       PTCLDY    28  25  86 W3        29.76R
CLINTONVILLE   FAIR      28  27  93 SW3       29.78R
OSHKOSH        FAIR      27  24  89 SW5       29.79R WCI  22
6HR MIN TEMP:  26; 6HR MAX TEMP:  37;

$$

WIZ032>034-041-042-053>061-201300-
SOUTHWEST WISCONSIN

CITY           SKY/WX    TMP DP  RH WIND       PRES   REMARKS
LA CROSSE      FOG       23  21  92 CALM      29.82R VSB 1
6HR MIN TEMP:  21; 6HR MAX TEMP:  33;

SPARTA         FAIR      20  19  97 CALM      29.82R
6HR MIN TEMP:  19; 6HR MAX TEMP:  28;

VIROQUA        FAIR      30  30 100 CALM      29.80R
6HR MIN TEMP:  29; 6HR MAX TEMP:  34;

BOSCOBEL       FAIR      25  23  92 CALM      29.82R
6HR MIN TEMP:  25; 6HR MAX TEMP:  36;

PRAIRIE DU CHI FAIR      28  26  90 CALM      29.83R
6HR MIN TEMP:  27; 6HR MAX TEMP:  35;

PLATTEVILLE    FAIR      30  29  94 S6        29.82S WCI  24
6HR MIN TEMP:  30; 6HR MAX TEMP:  37;

$$

WIZ056-057-062-063-064-067-068-201300-
SOUTH CENTRAL WISCONSIN

CITY           SKY/WX    TMP DP  RH WIND       PRES   REMARKS
REEDSBURG      FAIR      26  26 100 CALM      29.80R
6HR MIN TEMP:  26; 6HR MAX TEMP:  37;

BARABOO/DELLS  FAIR      32  28  83 SW6       29.80R WCI  26
6HR MIN TEMP:  30; 6HR MAX TEMP:  35;

LONE ROCK      FAIR      22  21  96 CALM      29.82R FOG
6HR MIN TEMP:  22; 6HR MAX TEMP:  34;

MINERAL POINT  FAIR      32  32 100 CALM      29.82R
MADISON        MOCLDY    27  24  89 S3        29.82R
6HR MIN TEMP:  27; 6HR MAX TEMP:  36;

MIDDLETON      FAIR      30  27  87 CALM      29.82R
6HR MIN TEMP:  30; 6HR MAX TEMP:  38;

WATERTOWN      FAIR      26  26 100 CALM      29.81R
6HR MIN TEMP:  26; 6HR MAX TEMP:  36;

MONROE         FAIR      32  28  86 SW7       29.82R WCI  26
JANESVILLE     FAIR      32  30  93 CALM      29.84R
$$

WIZ051-052-058>065-066-070>072-201300-
SOUTHEAST WISCONSIN

CITY           SKY/WX    TMP DP  RH WIND       PRES   REMARKS
MILWAUKEE      MOCLDY    36  28  73 SW3       29.81R
6HR MIN TEMP:  36; 6HR MAX TEMP:  42;

WAUKESHA       CLEAR     32  27  80 W7        29.83R WCI  26
MILWAUKEE/TIMM FAIR      34  27  75 W6        29.83R WCI  29
RACINE         FAIR      37  29  72 W8        29.84R WCI  31
6HR MIN TEMP:  37; 6HR MAX TEMP:  41;

BURLINGTON     FAIR      33  27  79 SW6       29.83R WCI  28
6HR MIN TEMP:  33; 6HR MAX TEMP:  40;

KENOSHA        FAIR      35  27  72 W8        29.83R WCI  29
6HR MIN TEMP:  35; 6HR MAX TEMP:  41;

FOND DU LAC    FAIR      32  25  75 SW7       29.79R WCI  26
6HR MIN TEMP:  32; 6HR MAX TEMP:  37;

SHEBOYGAN      FAIR      31  27  85 SW7       29.79R WCI  24
6HR MIN TEMP:  30; 6HR MAX TEMP:  38;

WEST BEND      FAIR      32  28  86 W3        29.80R
JUNEAU         FAIR      28  25  89 S5        29.82R WCI  22
6HR MIN TEMP:  28; 6HR MAX TEMP:  32;

$$

LSZ147-162-201300-
LAKE SUPERIOR

STATION/POSITION TIME  TEMP    WIND        PRES    WAVE
                       AIR SEA DIR/SP/G            HT/PER
                 (UTC) (F)     (DEG/KT/KT) (MB)    (FT/S)
DEVILS ISLAND    1200   34     230/ 12/ 14 1007.6R
SAXON HARBOR     1140   31     200/  6/  8 1007.1R
$$

LMZ867-665-643>646-201300-
LAKE MICHIGAN

STATION/POSITION TIME  TEMP    WIND        PRES    WAVE
                       AIR SEA DIR/SP/G            HT/PER




USA.gov is the U.S. government's official web portal to all federal, state and local government web resources and services.